Regional Weather Roundup
Issued by NWS

Home | Current Version | Previous Version | Graphics & Text | Print | Product List | Glossary On
Versions: 1 2 3 4 5 6 7 8 9 10 11 12 13 14 15 16 17 18 19 20 21 22 23 24 25 26 27 28 29 30 31 32 33 34 35 36 37 38 39 40 41 42 43 44 45 46 47 48 49 50
000
ASUS43 KLOT 241604
RWRIL

ILLINOIS REGIONAL WEATHER ROUNDUP
NATIONAL WEATHER SERVICE CHICAGO/ROMEOVILLE IL
1100 AM CDT SUN SEP 24 2017

NOTE: "FAIR" INDICATES FEW OR NO CLOUDS BELOW 12,000 FEET WITH NO
SIGNIFICANT WEATHER AND/OR OBSTRUCTIONS TO VISIBILITY.

* THESE STATIONS ARE NOT UNDER NWS QUALITY CONTROL. THEY ALSO MAY NOT
  REPORT WEATHER SUCH AS PRECIPITATION OR FOG.

ILZ001-002-007-009-015-016-024-241700-
NORTHWEST ILLINOIS

CITY           SKY/WX    TMP DP  RH WIND       PRES   REMARKS
MOLINE         SUNNY     83  64  52 S8        30.05S HX  84
STERLING*      SUNNY     84  64  50 SE10      30.08S HX  85
SAVANNA*       SUNNY     85  65  51 SE12      30.06S HX  86
$$

ILZ003-004-008-010-011-017-018-241700-
NORTH CENTRAL ILLINOIS

CITY           SKY/WX    TMP DP  RH WIND       PRES   REMARKS
ROCKFORD       SUNNY     85  63  47 S10       30.10S HX  86
FREEPORT*      SUNNY     83  63  51 S9        30.10S HX  84
ROCHELLE*      SUNNY     83  64  51 S7        30.10S HX  84
DE KALB*       SUNNY     83  66  56 S7        30.11F HX  85
PERU*          SUNNY     83  62  50 S10G17    30.09F HX  83
$$

ILZ005-006-012>014-019>023-241700-
NORTHEAST ILLINOIS

CITY           SKY/WX    TMP DP  RH WIND       PRES   REMARKS
CHICAGO-OHARE  SUNNY     87  62  43 S10       30.09S HX  87
CHICAGO-MIDWAY SUNNY     86  63  45 SW5       30.09F HX  87
AURORA         SUNNY     84  65  52 S12       30.10F HX  86
LANSING*       SUNNY     85  67  54 S7        30.11S HX  87
JOLIET*        SUNNY     85  67  54 S7        30.10F HX  88
WAUKEGAN       SUNNY     86  64  47 SW8       30.09S HX  87
DUPAGE AIRPORT SUNNY     85  65  51 S10       30.09F HX  86
KANKAKEE*      SUNNY     84  65  52 S3        30.11S HX  85
WHEELING       SUNNY     87  63  44 S7        30.10F HX  88
MORRIS*        SUNNY     84  66  53 S7        30.08F HX  86
ROMEOVILLE*    SUNNY     84  65  51 SW6       30.10F HX  85
NORTHERLY ISL    N/A     79  66  64 SE5         N/A  HX  81
$$

LMZ740>746-241700-
SOUTHERN LAKE MICHIGAN

STATION/POSITION SKY/WX   TEMP    WIND        PRES    VSBY  WAVE
                          AIR SEA DIR/SP/G                  HT/PER
                          (F)     (DEG/KT/KT) (MB)    (MI)  (FT/S)
SOUTHERN BUOY              72 71  180/  8/ 10 1019.5          1/ 3
WILMETTE HARBOR            73 71  130/  6/  6   N/A           1
HARRISON CRIB              78     150/  6/  8   N/A
BURNHAM HARBOR             80                   N/A
CALUMET HARBOR             83     160/  4/  6 1018.6F
BURNS HARBOR               83     200/  8/ 11 1019.6F
MICHIGAN CITY              81     140/  6/  7   N/A
MICHIGAN CITY 6N           77 72  180/  4/  6   N/A           0
ST. JOSEPH                 77 72  190/  4/  6 1019.3F         0
$$

ILZ025>027-034>036-040-047-049-050-058-095>099-241700-
WEST-CENTRAL ILLINOIS

CITY           SKY/WX    TMP DP  RH WIND       PRES   REMARKS
QUINCY         SUNNY     84  66  54 S8        30.05S HX  86
GALESBURG*     SUNNY     82  66  57 S5        30.08S HX  84
MACOMB*        SUNNY     83  64  52 SE7       30.08S HX  85
JACKSONVILLE*  SUNNY     85  67  53 S7        30.07S HX  88
PITTSFIELD*    SUNNY     85  68  55 S5        30.07F HX  88
$$

ILZ028>032-037-038-041>044-048-051>054-059>061-241700-
CENTRAL ILLINOIS

CITY           SKY/WX    TMP DP  RH WIND       PRES   REMARKS
PONTIAC        SUNNY     86  66  50 S8        30.10F HX  89
BLOOMINGTON    SUNNY     83  66  56 S8        30.11F HX  85
DECATUR        SUNNY     85  64  49 VRB3      30.09F HX  86
PEORIA         SUNNY     84  67  56 S8        30.08S HX  86
LACON*         SUNNY     84  67  55 S8        30.07F HX  87
LINCOLN*       SUNNY     85  68  56 S8        30.08S HX  89
SPRINGFIELD    SUNNY     87  68  52 S7        30.08S HX  90
TAYLORVILLE    SUNNY     86  66  51 SW7       30.08S HX  88
$$

ILZ033-039-045-046-055>057-062-063-241700-
EAST-CENTRAL ILLINOIS

CITY           SKY/WX    TMP DP  RH WIND       PRES   REMARKS
CHAMPAIGN      SUNNY     86  61  42 SW6       30.10F HX  86
RANTOUL*       SUNNY     85  66  52 SW3       30.10F HX  87
MATTOON        SUNNY     85  65  51 VRB6      30.08F HX  86
PARIS*         SUNNY     87  65  47 S5        30.10F HX  89
$$

ILZ079-100>102-241700-
SOUTHWEST ILLINOIS

CITY           SKY/WX    TMP DP  RH WIND       PRES   REMARKS
ALTON          SUNNY     84  70  61 SE6       30.06F HX  88
BELLEVILLE     SUNNY     85  68  55 SW3       30.05F HX  88
CAHOKIA*       SUNNY     88  66  48 VRB3      30.05F HX  90
SPARTA*        SUNNY     85  68  57 CALM      30.07F HX  88
$$

ILZ064>066-069>071-074>076-080>082-084>086-088>090-092>094-241700-
SOUTH-CENTRAL ILLINOIS

CITY           SKY/WX    TMP DP  RH WIND       PRES   REMARKS
CARBONDALE     SUNNY     85  72  65 CALM      30.05F HX  91
CAIRO*         SUNNY     82  72  72 CALM      30.05S HX  87
EFFINGHAM*     SUNNY     87  64  47 CALM      30.09F HX  88
MARION         SUNNY     86  68  54 SE8       30.06F HX  89
MT. VERNON       N/A     86  68  54 NE5       30.07F HX  89
CENTRALIA*     SUNNY     87  67  51 SE5       30.06F HX  90
SALEM*         SUNNY     87  65  47 CALM      30.08S HX  88
METROPOLIS*    HVY RAIN  85  69  59 SE3       30.06S HX  89
$$

ILZ067-068-072-073-078-083-087-091-241700-
SOUTHEAST ILLINOIS

CITY           SKY/WX    TMP DP  RH WIND       PRES   REMARKS
LAWRENCEVILLE  SUNNY     85  65  51 CALM      30.08F HX  86
FLORA*         SUNNY     86  64  46 NE3       30.07F HX  87
FAIRFIELD*     SUNNY     87  62  43 CALM      30.06S HX  87
HARRISBURG*    SUNNY     87  68  53 CALM      30.06F HX  90
ROBINSON*      SUNNY     84  64  49 CALM      30.09F HX  85
CARMI*         SUNNY     87  65  47 NE5       30.05F HX  88
$$

ABBREVIATIONS USED IN REMARKS
   TC - TEMPERATURE IN CELSIUS
  WCI - WIND CHILL INDEX
   HX - HEAT INDEX
  VSB - VISIBILITY
$$





USA.gov is the U.S. government's official web portal to all federal, state and local government web resources and services.